KN6RO-14 Weather Reports


time (UTC)temp
C
wind
direction
speed
KPH
gust
KPH
rain 1hr
cm
rain 24hr
cm
rain mn
cm
humidity
%
barometer
mb
20260509122400 13 126 0.0 0.0 0.00 0.00 0.00 89 1011.4
20260509115400 13 126 0.0 0.0 0.00 0.00 0.00 89 1011.5
20260509112400 13 127 0.0 0.0 0.00 0.00 0.00 87 1011.6
20260509105400 13 127 0.0 0.0 0.00 0.00 0.00 87 1011.5
20260509102400 13 125 0.0 0.0 0.00 0.00 0.00 86 1011.4
20260509095400 13 130 0.0 0.0 0.00 0.00 0.00 86 1011.3
20260509092400 13 258 0.0 0.0 0.00 0.00 0.00 85 1011.5
20260509085400 13 258 0.0 0.0 0.00 0.00 0.00 85 1011.4
20260509082400 13 274 0.0 1.6 0.00 0.00 0.00 83 1011.8
20260509075400 13 274 0.0 0.0 0.00 0.00 0.00 83 1011.6
20260509072446 13 248 0.0 1.6 0.00 0.00 0.00 84 1011.4
20260509072400 13 248 0.0 1.6 0.00 0.00 0.00 84 1011.4
20260509065400 13 290 0.0 0.0 0.00 0.00 0.00 84 1011.8
20260509062401 13 266 0.0 0.0 0.00 0.00 0.00 84 1012.0
20260509055401 13 266 0.0 0.0 0.00 0.00 0.00 83 1013.1
20260509052401 13 266 0.0 0.0 0.00 0.00 0.00 82 1012.8
20260509045401 13 266 0.0 0.0 0.00 0.00 0.00 82 1012.9
20260509042401 13 324 0.0 0.0 0.00 0.00 0.00 78 1013.1
20260509035401 13 101 0.0 1.6 0.00 0.00 0.00 76 1013.7
20260509032401 13 254 0.0 4.8 0.00 0.00 0.00 75 1013.9
20260509025401 14 352 0.0 1.6 0.00 0.00 0.00 72 1014.1
20260509022401 14 242 0.0 0.0 0.00 0.00 0.00 72 1014.0
20260509015401 15 75 0.0 1.6 0.00 0.00 0.00 68 1014.0
20260509012401 15 75 0.0 1.6 0.00 0.00 0.00 66 1013.8
20260509005401 15 75 0.0 0.0 0.00 0.00 0.00 66 1013.7
20260509002402 15 75 0.0 0.0 0.00 0.00 0.00 65 1013.9
20260508235401 15 75 0.0 0.0 0.00 0.00 0.00 64 1013.6
20260508232401 15 75 0.0 1.6 0.00 0.00 0.00 67 1013.6
20260508225401 16 74 0.0 0.0 0.00 0.00 0.00 66 1013.8
20260508222401 16 76 0.0 3.2 0.00 0.00 0.00 66 1013.7
20260508215401 17 82 0.0 0.0 0.00 0.00 0.00 66 1013.7
20260508212401 17 92 0.0 1.6 0.00 0.00 0.00 71 1013.7
20260508205401 18 92 0.0 1.6 0.00 0.00 0.00 62 1013.8
20260508202402 19 101 0.0 1.6 0.00 0.00 0.00 59 1014.0
20260508195402 19 265 0.0 1.6 0.00 0.00 0.00 62 1014.0
20260508192402 20 29 0.0 3.2 0.00 0.00 0.00 60 1014.9
20260508185402 20 55 0.0 3.2 0.00 0.00 0.00 53 1014.7
20260508182402 20 59 0.0 1.6 0.00 0.00 0.00 54 1015.4
20260508175402 21 68 1.6 6.4 0.00 0.00 0.00 51 1015.6
20260508172402 20 52 1.6 4.8 0.00 0.00 0.00 55 1015.8
20260508165402 19 246 0.0 1.6 0.00 0.00 0.00 55 1016.1
20260508162402 18 34 1.6 6.4 0.00 0.00 0.00 57 1017.1
20260508155402 18 34 1.6 4.8 0.00 0.00 0.00 61 1017.3
20260508152402 17 22 3.2 6.4 0.00 0.00 0.00 56 1017.5
20260508145402 18 65 0.0 3.2 0.00 0.00 0.00 58 1017.7
20260508142402 16 47 1.6 6.4 0.00 0.00 0.00 60 1017.5
20260508135402 16 72 1.6 4.8 0.00 0.00 0.00 57 1017.5
20260508132402 14 46 1.6 3.2 0.00 0.00 0.00 62 1017.7
20260508125402 12 49 1.6 4.8 0.00 0.00 0.00 69 1017.6